Flag for Finland Weather past 2 weeks in Turku, Finland

41 °F

Scattered clouds.

Feels Like: 36 °F
Forecast: 39 / 43 °F
Wind: 7 mph from South

Location: Turku Airport

Current Time: Nov 29, 2015 at 2:55:26 PM

Latest Report: Nov 29, 2015 at 2:20 PM

Visibility: N/A

Pressure: 29.30 "Hg

Humidity: 81%

Dew point: 36 °F

Location of TurkuLocation

Historic Weather in Turku — Graph


Turku temperature yesterday

Maximum temperature yesterday: 46 °F (at 12:20 AM)
Minimum temperature yesterday: 41 °F (at 5:50 PM)
Average temperature yesterday: 43 °F

Past Weeks' High & Low Weather Summary

High46 °F (Nov 27, 4:50 PM)100% (Nov 14, 5:20 PM)29.89 "Hg (Nov 14, 5:20 PM)
Low16 °F (Nov 24, 1:20 AM)71% (Nov 25, 7:50 PM)29.12 "Hg (Nov 21, 9:20 AM)
Average37 °F95%29.48 "Hg
* Reported Nov 14 1:20 PM — Nov 29 1:20 PM, Turku, Weather by CustomWeather, © 2015

Note: Actual official high and low records may vary slightly from our data, if they occured in-between our weather recording intervals... More about our weather records


Turku weather history for previous 24 hours

Time TempWeatherWind HumidityBarometerVisibility
1:20 PM
Sun, Nov 29
39 °FScattered clouds.5 mph87%29.36 "HgN/A
12:50 PM39 °FPassing clouds.5 mph87%29.36 "HgN/A
12:20 PM37 °FSunny.3 mph93%29.39 "Hg10 mi
11:50 AM37 °FPassing clouds.3 mph93%29.39 "HgN/A
11:20 AM36 °FPassing clouds.5 mph93%29.42 "HgN/A
10:50 AM36 °FPassing clouds.3 mph93%29.42 "HgN/A
10:20 AM36 °FPassing clouds.3 mph93%29.42 "HgN/A
9:50 AM34 °FPassing clouds.3 mph100%29.42 "HgN/A
9:20 AM34 °FSunny.3 mph100%29.42 "Hg10 mi
8:50 AM34 °FPassing clouds.3 mph100%29.42 "HgN/A
8:20 AM34 °FPassing clouds.3 mph100%29.42 "HgN/A
7:20 AM34 °FPassing clouds.3 mph100%29.42 "HgN/A
6:50 AM36 °FPassing clouds.5 mph93%29.42 "HgN/A
6:20 AM36 °FPassing clouds.5 mph100%29.42 "HgN/A
5:50 AM36 °FPassing clouds.5 mph100%29.42 "HgN/A
5:20 AM37 °FPassing clouds.5 mph93%29.42 "HgN/A
4:50 AM37 °FPassing clouds.3 mph93%29.42 "HgN/A
4:20 AM37 °FPassing clouds.3 mph93%29.42 "HgN/A
3:50 AM37 °FPassing clouds.3 mph93%29.42 "HgN/A
3:20 AM39 °FPassing clouds.5 mph93%29.39 "HgN/A
2:50 AM39 °FPassing clouds.5 mph93%29.39 "HgN/A
2:20 AM41 °FPartly cloudy.6 mph93%29.39 "HgN/A
1:20 AM39 °FPartly cloudy.6 mph100%29.36 "HgN/A
12:50 AM39 °FMostly cloudy.6 mph100%29.36 "HgN/A
12:20 AM41 °FLight rain. Overcast.6 mph93%29.36 "HgN/A
11:50 PM
Sat, Nov 28
41 °FLight rain. Overcast.7 mph93%29.36 "HgN/A
11:20 PM41 °FLight rain. Overcast.8 mph93%29.36 "HgN/A
10:20 PM41 °FRain. Mostly cloudy.13 mph93%29.36 "Hg4 mi
9:50 PM41 °FLight rain. Overcast.12 mph93%29.36 "Hg4 mi
9:20 PM41 °FLight rain. Overcast.12 mph93%29.36 "Hg4 mi
8:50 PM41 °FLight rain. Mostly cloudy.13 mph87%29.36 "HgN/A
8:20 PM41 °FLight rain. Mostly cloudy.13 mph93%29.36 "Hg4 mi
7:50 PM41 °FDrizzle. Fog.12 mph93%29.36 "Hg3 mi
7:20 PM41 °FLight rain. Fog.13 mph93%29.36 "Hg3 mi
6:50 PM41 °FLight rain. Low clouds.14 mph93%29.36 "Hg5 mi
6:20 PM41 °FLight rain. Low clouds.14 mph93%29.36 "Hg4 mi
5:50 PM41 °FLight rain. Mostly cloudy.13 mph93%29.36 "Hg4 mi
5:20 PM43 °FLight rain. Overcast.13 mph81%29.36 "HgN/A
4:50 PM43 °FLight rain. Overcast.16 mph81%29.36 "HgN/A
4:20 PM43 °FLight rain. Overcast.14 mph81%29.39 "HgN/A
3:50 PM43 °FLight rain. Overcast.15 mph81%29.39 "Hg4 mi
3:20 PM43 °FLight rain. Overcast.16 mph81%29.39 "HgN/A
2:50 PM43 °FLight rain. Overcast.14 mph76%29.39 "HgN/A
2:20 PM43 °FOvercast.15 mph76%29.39 "HgN/A
Weather by CustomWeather, © 2015

See weather overviewHow to use our weather pages